STARLINK-36649

Last updated on Sun Mar 15 2026 00:02:07 GMT+0000 (Coordinated Universal Time)

1 67837U 26033S 26073.58335648 -.01941100 00000+0 -19488-1 0 9993 2 67837 42.9989 241.5954 0001403 275.4786 218.8548 15.67697501 5458

Satellite not in orbit